Year,Month,Day,Hour,Minute,Value (Times are PST for temperature in C)
2014,07,15,00,00,21.80
2014,07,15,00,01,21.80
2014,07,15,00,02,21.70
2014,07,15,00,03,21.70
2014,07,15,00,04,21.70
2014,07,15,00,05,21.70
2014,07,15,00,06,21.70
2014,07,15,00,07,21.70
2014,07,15,00,08,21.70
2014,07,15,00,09,21.70
2014,07,15,00,10,21.70
2014,07,15,00,11,21.80
2014,07,15,00,12,21.80
2014,07,15,00,13,21.80
2014,07,15,00,14,21.90
2014,07,15,00,15,21.90
2014,07,15,00,16,22.00
2014,07,15,00,17,22.00
2014,07,15,00,18,22.10
2014,07,15,00,19,22.10
2014,07,15,00,20,22.10
2014,07,15,00,21,22.20
2014,07,15,00,22,22.20
2014,07,15,00,23,22.20
2014,07,15,00,24,22.20
2014,07,15,00,25,22.30
2014,07,15,00,26,22.30
2014,07,15,00,27,22.30
2014,07,15,00,28,22.40
2014,07,15,00,29,22.50
2014,07,15,00,30,22.50
2014,07,15,00,31,22.60
2014,07,15,00,32,22.70
2014,07,15,00,33,22.70
2014,07,15,00,34,22.70
2014,07,15,00,35,22.70
2014,07,15,00,36,22.70
2014,07,15,00,37,22.80
2014,07,15,00,38,22.80
2014,07,15,00,39,22.80
2014,07,15,00,40,22.80
2014,07,15,00,41,22.80
2014,07,15,00,42,22.80
2014,07,15,00,43,22.80
2014,07,15,00,44,22.80
2014,07,15,00,45,22.80
2014,07,15,00,46,22.80
2014,07,15,00,47,22.80
2014,07,15,00,48,22.80
2014,07,15,00,49,22.80
2014,07,15,00,50,22.80
2014,07,15,00,51,22.80
2014,07,15,00,52,22.80
2014,07,15,00,53,22.80
2014,07,15,00,54,22.80
2014,07,15,00,55,22.80
2014,07,15,00,56,22.80
2014,07,15,00,57,22.80
2014,07,15,00,58,22.80
2014,07,15,00,59,22.80
2014,07,15,01,00,22.80
2014,07,15,01,01,22.70
2014,07,15,01,02,22.70
2014,07,15,01,03,22.70
2014,07,15,01,04,22.70
2014,07,15,01,05,22.70
2014,07,15,01,06,22.70
2014,07,15,01,07,22.70
2014,07,15,01,08,22.70
2014,07,15,01,09,22.70
2014,07,15,01,10,22.70
2014,07,15,01,11,22.70
2014,07,15,01,12,22.70
2014,07,15,01,13,22.70
2014,07,15,01,14,22.70
2014,07,15,01,15,22.70
2014,07,15,01,16,22.80
2014,07,15,01,17,22.80
2014,07,15,01,18,22.80
2014,07,15,01,19,22.90
2014,07,15,01,20,22.90
2014,07,15,01,21,22.90
2014,07,15,01,22,22.90
2014,07,15,01,23,22.90
2014,07,15,01,24,22.90
2014,07,15,01,25,22.90
2014,07,15,01,26,22.90
2014,07,15,01,27,22.90
2014,07,15,01,28,22.90
2014,07,15,01,29,22.90
2014,07,15,01,30,22.90
2014,07,15,01,31,22.80
2014,07,15,01,32,22.80
2014,07,15,01,33,22.80
2014,07,15,01,34,22.70
2014,07,15,01,35,22.70
2014,07,15,01,36,22.70
2014,07,15,01,37,22.60
2014,07,15,01,38,22.60
2014,07,15,01,39,22.60
2014,07,15,01,40,22.60
2014,07,15,01,41,22.50
2014,07,15,01,42,22.50
2014,07,15,01,43,22.50
2014,07,15,01,44,22.50
2014,07,15,01,45,22.40
2014,07,15,01,46,22.40
2014,07,15,01,47,22.50
2014,07,15,01,48,22.50
2014,07,15,01,49,22.60
2014,07,15,01,50,22.60
2014,07,15,01,51,22.60
2014,07,15,01,52,22.60
2014,07,15,01,53,22.70
2014,07,15,01,54,22.70
2014,07,15,01,55,22.70
2014,07,15,01,56,22.70
2014,07,15,01,57,22.70
2014,07,15,01,58,22.80
2014,07,15,01,59,22.80
2014,07,15,02,00,22.80
2014,07,15,02,01,22.70
2014,07,15,02,02,22.70
2014,07,15,02,03,22.70
2014,07,15,02,04,22.70
2014,07,15,02,05,22.70
2014,07,15,02,06,22.60
2014,07,15,02,07,22.60
2014,07,15,02,08,22.60
2014,07,15,02,09,22.50
2014,07,15,02,10,22.50
2014,07,15,02,11,22.40
2014,07,15,02,12,22.30
2014,07,15,02,13,22.30
2014,07,15,02,14,22.20
2014,07,15,02,15,22.20
2014,07,15,02,16,22.10
2014,07,15,02,17,22.00
2014,07,15,02,18,21.90
2014,07,15,02,19,21.90
2014,07,15,02,20,21.80
2014,07,15,02,21,21.80
2014,07,15,02,22,21.70
2014,07,15,02,23,21.70
2014,07,15,02,24,21.60
2014,07,15,02,25,21.60
2014,07,15,02,26,21.50
2014,07,15,02,27,21.40
2014,07,15,02,28,21.40
2014,07,15,02,29,21.30
2014,07,15,02,30,21.30
2014,07,15,02,31,21.20
2014,07,15,02,32,21.20
2014,07,15,02,33,21.20
2014,07,15,02,34,21.10
2014,07,15,02,35,21.10
2014,07,15,02,36,21.10
2014,07,15,02,37,21.10
2014,07,15,02,38,21.00
2014,07,15,02,39,21.00
2014,07,15,02,40,21.00
2014,07,15,02,41,20.90
2014,07,15,02,42,20.90
2014,07,15,02,43,20.90
2014,07,15,02,44,20.80
2014,07,15,02,45,20.80
2014,07,15,02,46,20.80
2014,07,15,02,47,20.80
2014,07,15,02,48,20.80
2014,07,15,02,49,20.80
2014,07,15,02,50,20.80
2014,07,15,02,51,20.80
2014,07,15,02,52,20.80
2014,07,15,02,53,20.80
2014,07,15,02,54,20.90
2014,07,15,02,55,20.90
2014,07,15,02,56,20.90
2014,07,15,02,57,20.90
2014,07,15,02,58,20.90
2014,07,15,02,59,20.90
2014,07,15,03,00,20.90
2014,07,15,03,01,20.90
2014,07,15,03,02,20.90
2014,07,15,03,03,20.90
2014,07,15,03,04,20.90
2014,07,15,03,05,20.90
2014,07,15,03,06,20.90
2014,07,15,03,07,20.90
2014,07,15,03,08,20.90
2014,07,15,03,09,20.80
2014,07,15,03,10,20.80
2014,07,15,03,11,20.80
2014,07,15,03,12,20.80
2014,07,15,03,13,20.70
2014,07,15,03,14,20.70
2014,07,15,03,15,20.60
2014,07,15,03,16,20.50
2014,07,15,03,17,20.50
2014,07,15,03,18,20.40
2014,07,15,03,19,20.30
2014,07,15,03,20,20.30
2014,07,15,03,21,20.20
2014,07,15,03,22,20.10
2014,07,15,03,23,20.10
2014,07,15,03,24,20.00
2014,07,15,03,25,19.90
2014,07,15,03,26,19.80
2014,07,15,03,27,19.80
2014,07,15,03,28,19.70
2014,07,15,03,29,19.70
2014,07,15,03,30,19.60
2014,07,15,03,31,19.50
2014,07,15,03,32,19.50
2014,07,15,03,33,19.40
2014,07,15,03,34,19.30
2014,07,15,03,35,19.30
2014,07,15,03,36,19.30
2014,07,15,03,37,19.20
2014,07,15,03,38,19.10
2014,07,15,03,39,19.10
2014,07,15,03,40,19.10
2014,07,15,03,41,19.00
2014,07,15,03,42,18.90
2014,07,15,03,43,18.90
2014,07,15,03,44,18.90
2014,07,15,03,45,18.80
2014,07,15,03,46,18.80
2014,07,15,03,47,18.80
2014,07,15,03,48,18.70
2014,07,15,03,49,18.70
2014,07,15,03,50,18.60
2014,07,15,03,51,18.60
2014,07,15,03,52,18.60
2014,07,15,03,53,18.50
2014,07,15,03,54,18.50
2014,07,15,03,55,18.40
2014,07,15,03,56,18.40
2014,07,15,03,57,18.30
2014,07,15,03,58,18.30
2014,07,15,03,59,18.30
2014,07,15,04,00,18.30
2014,07,15,04,01,18.20
2014,07,15,04,02,18.20
2014,07,15,04,03,18.10
2014,07,15,04,04,18.10
2014,07,15,04,05,18.10
2014,07,15,04,06,18.10
2014,07,15,04,07,18.00
2014,07,15,04,08,18.00
2014,07,15,04,09,17.90
2014,07,15,04,10,17.90
2014,07,15,04,11,17.90
2014,07,15,04,12,17.80
2014,07,15,04,13,17.80
2014,07,15,04,14,17.80
2014,07,15,04,15,17.80
2014,07,15,04,16,17.70
2014,07,15,04,17,17.70
2014,07,15,04,18,17.70
2014,07,15,04,19,17.70
2014,07,15,04,20,17.60
2014,07,15,04,21,17.60
2014,07,15,04,22,17.60
2014,07,15,04,23,17.60
2014,07,15,04,24,17.50
2014,07,15,04,25,17.50
2014,07,15,04,26,17.50
2014,07,15,04,27,17.40
2014,07,15,04,28,17.40
2014,07,15,04,29,17.40
2014,07,15,04,30,17.40
2014,07,15,04,31,17.40
2014,07,15,04,32,17.30
2014,07,15,04,33,17.30
2014,07,15,04,34,17.30
2014,07,15,04,35,17.30
2014,07,15,04,36,17.30
2014,07,15,04,37,17.20
2014,07,15,04,38,17.20
2014,07,15,04,39,17.20
2014,07,15,04,40,17.20
2014,07,15,04,41,17.20
2014,07,15,04,42,17.10
2014,07,15,04,43,17.10
2014,07,15,04,44,17.10
2014,07,15,04,45,17.10
2014,07,15,04,46,17.10
2014,07,15,04,47,17.10
2014,07,15,04,48,17.10
2014,07,15,04,49,17.10
2014,07,15,04,50,17.00
2014,07,15,04,51,17.00
2014,07,15,04,52,17.00
2014,07,15,04,53,17.00
2014,07,15,04,54,17.00
2014,07,15,04,55,16.90
2014,07,15,04,56,16.90
2014,07,15,04,57,16.90
2014,07,15,04,58,16.90
2014,07,15,04,59,16.90
2014,07,15,05,00,16.90
2014,07,15,05,01,16.80
2014,07,15,05,02,16.80
2014,07,15,05,03,16.80
2014,07,15,05,04,16.80
2014,07,15,05,05,16.80
2014,07,15,05,06,16.80
2014,07,15,05,07,16.80
2014,07,15,05,08,16.70
2014,07,15,05,09,16.70
2014,07,15,05,10,16.70
2014,07,15,05,11,16.70
2014,07,15,05,12,16.70
2014,07,15,05,13,16.70
2014,07,15,05,14,16.60
2014,07,15,05,15,16.60
2014,07,15,05,16,16.60
2014,07,15,05,17,16.60
2014,07,15,05,18,16.60
2014,07,15,05,19,16.60
2014,07,15,05,20,16.60
2014,07,15,05,21,16.50
2014,07,15,05,22,16.50
2014,07,15,05,23,16.50
2014,07,15,05,24,16.50
2014,07,15,05,25,16.40
2014,07,15,05,26,16.40
2014,07,15,05,27,16.40
2014,07,15,05,28,16.40
2014,07,15,05,29,16.30
2014,07,15,05,30,16.30
2014,07,15,05,31,16.30
2014,07,15,05,32,16.30
2014,07,15,05,33,16.30
2014,07,15,05,34,16.30
2014,07,15,05,35,16.30
2014,07,15,05,36,16.20
2014,07,15,05,37,16.20
2014,07,15,05,38,16.20
2014,07,15,05,39,16.20
2014,07,15,05,40,16.10
2014,07,15,05,41,16.10
2014,07,15,05,42,16.10
2014,07,15,05,43,16.10
2014,07,15,05,44,16.10
2014,07,15,05,45,16.10
2014,07,15,05,46,16.10
2014,07,15,05,47,16.10
2014,07,15,05,48,16.00
2014,07,15,05,49,16.00
2014,07,15,05,50,16.00
2014,07,15,05,51,16.00
2014,07,15,05,52,16.00
2014,07,15,05,53,16.00
2014,07,15,05,54,15.90
2014,07,15,05,55,15.90
2014,07,15,05,56,15.90
2014,07,15,05,57,15.90
2014,07,15,05,58,15.90
2014,07,15,05,59,15.90
2014,07,15,06,00,15.90
2014,07,15,06,01,15.80
2014,07,15,06,02,15.80
2014,07,15,06,03,15.80
2014,07,15,06,04,15.80
2014,07,15,06,05,15.80
2014,07,15,06,06,15.80
2014,07,15,06,07,15.80
2014,07,15,06,08,15.80
2014,07,15,06,09,15.80
2014,07,15,06,10,15.80
2014,07,15,06,11,15.80
2014,07,15,06,12,15.80
2014,07,15,06,13,15.80
2014,07,15,06,14,15.80
2014,07,15,06,15,15.80
2014,07,15,06,16,15.80
2014,07,15,06,17,15.80
2014,07,15,06,18,15.80
2014,07,15,06,19,15.80
2014,07,15,06,20,15.80
2014,07,15,06,21,15.80
2014,07,15,06,22,15.80
2014,07,15,06,23,15.80
2014,07,15,06,24,15.80
2014,07,15,06,25,15.80
2014,07,15,06,26,15.80
2014,07,15,06,27,15.80
2014,07,15,06,28,15.80
2014,07,15,06,29,15.80
2014,07,15,06,30,15.90
2014,07,15,06,31,15.90
2014,07,15,06,32,15.90
2014,07,15,06,33,16.00
2014,07,15,06,34,16.00
2014,07,15,06,35,16.10
2014,07,15,06,36,16.10
2014,07,15,06,37,16.10
2014,07,15,06,38,16.20
2014,07,15,06,39,16.20
2014,07,15,06,40,16.20
2014,07,15,06,41,16.20
2014,07,15,06,42,16.30
2014,07,15,06,43,16.30
2014,07,15,06,44,16.30
2014,07,15,06,45,16.30
2014,07,15,06,46,16.30
2014,07,15,06,47,16.40
2014,07,15,06,48,16.40
2014,07,15,06,49,16.40
2014,07,15,06,50,16.40
2014,07,15,06,51,16.50
2014,07,15,06,52,16.50
2014,07,15,06,53,16.50
2014,07,15,06,54,16.50
2014,07,15,06,55,16.50
2014,07,15,06,56,16.60
2014,07,15,06,57,16.60
2014,07,15,06,58,16.60
2014,07,15,06,59,16.60
2014,07,15,07,00,16.60
2014,07,15,07,01,16.60
2014,07,15,07,02,16.70
2014,07,15,07,03,16.70
2014,07,15,07,04,16.70
2014,07,15,07,05,16.70
2014,07,15,07,06,16.80
2014,07,15,07,07,16.80
2014,07,15,07,08,16.80
2014,07,15,07,09,16.80
2014,07,15,07,10,16.80
2014,07,15,07,11,16.80
2014,07,15,07,12,16.90
2014,07,15,07,13,16.90
2014,07,15,07,14,16.90
2014,07,15,07,15,17.00
2014,07,15,07,16,17.00
2014,07,15,07,17,17.10
2014,07,15,07,18,17.10
2014,07,15,07,19,17.10
2014,07,15,07,20,17.20
2014,07,15,07,21,17.20
2014,07,15,07,22,17.20
2014,07,15,07,23,17.30
2014,07,15,07,24,17.30
2014,07,15,07,25,17.40
2014,07,15,07,26,17.40
2014,07,15,07,27,17.50
2014,07,15,07,28,17.50
2014,07,15,07,29,17.60
2014,07,15,07,30,17.60
2014,07,15,07,31,17.70
2014,07,15,07,32,17.80
2014,07,15,07,33,17.90
2014,07,15,07,34,18.00
2014,07,15,07,35,18.20
2014,07,15,07,36,18.40
2014,07,15,07,37,18.60
2014,07,15,07,38,18.70
2014,07,15,07,39,18.90
2014,07,15,07,40,19.10
2014,07,15,07,41,19.20
2014,07,15,07,42,19.30
2014,07,15,07,43,19.40
2014,07,15,07,44,19.40
2014,07,15,07,45,19.50
2014,07,15,07,46,19.60
2014,07,15,07,47,19.60
2014,07,15,07,48,19.70
2014,07,15,07,49,19.70
2014,07,15,07,50,19.70
2014,07,15,07,51,19.80
2014,07,15,07,52,19.80
2014,07,15,07,53,19.90
2014,07,15,07,54,19.90
2014,07,15,07,55,19.90
2014,07,15,07,56,19.90
2014,07,15,07,57,20.00
2014,07,15,07,58,20.00
2014,07,15,07,59,20.00
2014,07,15,08,00,20.00
2014,07,15,08,01,20.00
2014,07,15,08,02,19.90
2014,07,15,08,03,19.90
2014,07,15,08,04,19.90
2014,07,15,08,05,19.90
2014,07,15,08,06,19.90
2014,07,15,08,07,19.90
2014,07,15,08,08,19.90
2014,07,15,08,09,19.90
2014,07,15,08,10,19.90
2014,07,15,08,11,19.90
2014,07,15,08,12,20.00
2014,07,15,08,13,20.00
2014,07,15,08,14,20.00
2014,07,15,08,15,20.00
2014,07,15,08,16,20.00
2014,07,15,08,17,20.00
2014,07,15,08,18,20.00
2014,07,15,08,19,20.00
2014,07,15,08,20,20.00
2014,07,15,08,21,20.00
2014,07,15,08,22,20.00
2014,07,15,08,23,20.00
2014,07,15,08,24,20.10
2014,07,15,08,25,20.10
2014,07,15,08,26,20.10
2014,07,15,08,27,20.10
2014,07,15,08,28,20.10
2014,07,15,08,29,20.10
2014,07,15,08,30,20.10
2014,07,15,08,31,20.10
2014,07,15,08,32,20.10
2014,07,15,08,33,20.10
2014,07,15,08,34,20.10
2014,07,15,08,35,20.10
2014,07,15,08,36,20.10
2014,07,15,08,37,20.10
2014,07,15,08,38,20.10
2014,07,15,08,39,20.10
2014,07,15,08,40,20.20
2014,07,15,08,41,20.20
2014,07,15,08,42,20.20
2014,07,15,08,43,20.20
2014,07,15,08,44,20.30
2014,07,15,08,45,20.30
2014,07,15,08,46,20.30
2014,07,15,08,47,20.40
2014,07,15,08,48,20.40
2014,07,15,08,49,20.40
2014,07,15,08,50,20.40
2014,07,15,08,51,20.40
2014,07,15,08,52,20.40
2014,07,15,08,53,20.40
2014,07,15,08,54,20.40
2014,07,15,08,55,20.40
2014,07,15,08,56,20.40
2014,07,15,08,57,20.40
2014,07,15,08,58,20.40
2014,07,15,08,59,20.40
2014,07,15,09,00,20.40
2014,07,15,09,01,20.40
2014,07,15,09,02,20.40
2014,07,15,09,03,20.40
2014,07,15,09,04,20.40
2014,07,15,09,05,20.40
2014,07,15,09,06,20.30
2014,07,15,09,07,20.30
2014,07,15,09,08,20.30
2014,07,15,09,09,20.20
2014,07,15,09,10,20.20
2014,07,15,09,11,20.10
2014,07,15,09,12,20.10
2014,07,15,09,13,20.10
2014,07,15,09,14,20.00
2014,07,15,09,15,20.10
2014,07,15,09,16,20.10
2014,07,15,09,17,20.10
2014,07,15,09,18,20.10
2014,07,15,09,19,20.10
2014,07,15,09,20,20.20
2014,07,15,09,21,20.20
2014,07,15,09,22,20.20
2014,07,15,09,23,20.10
2014,07,15,09,24,20.10
2014,07,15,09,25,20.10
2014,07,15,09,26,20.10
2014,07,15,09,27,20.10
2014,07,15,09,28,20.10
2014,07,15,09,29,20.10
2014,07,15,09,30,20.10
2014,07,15,09,31,20.10
2014,07,15,09,32,20.10
2014,07,15,09,33,20.10
2014,07,15,09,34,20.10
2014,07,15,09,35,20.10
2014,07,15,09,36,20.10
2014,07,15,09,37,20.10
2014,07,15,09,38,20.10
2014,07,15,09,39,20.20
2014,07,15,09,40,20.20
2014,07,15,09,41,20.20
2014,07,15,09,42,20.10
2014,07,15,09,43,20.10
2014,07,15,09,44,20.10
2014,07,15,09,45,20.10
2014,07,15,09,46,20.10
2014,07,15,09,47,20.10
2014,07,15,09,48,20.10
2014,07,15,09,49,20.10
2014,07,15,09,50,20.20
2014,07,15,09,51,20.20
2014,07,15,09,52,20.20
2014,07,15,09,53,20.30
2014,07,15,09,54,20.30
2014,07,15,09,55,20.30
2014,07,15,09,56,20.30
2014,07,15,09,57,20.30
2014,07,15,09,58,20.30
2014,07,15,09,59,20.30
2014,07,15,10,00,20.30
2014,07,15,10,01,20.30
2014,07,15,10,02,20.40
2014,07,15,10,03,20.40
2014,07,15,10,04,20.40
2014,07,15,10,05,20.30
2014,07,15,10,06,20.40
2014,07,15,10,07,20.40
2014,07,15,10,08,20.40
2014,07,15,10,09,20.40
2014,07,15,10,10,20.40
2014,07,15,10,11,20.50
2014,07,15,10,12,20.50
2014,07,15,10,13,20.60
2014,07,15,10,14,20.70
2014,07,15,10,15,20.70
2014,07,15,10,16,20.70
2014,07,15,10,17,20.80
2014,07,15,10,18,20.80
2014,07,15,10,19,20.80
2014,07,15,10,20,20.80
2014,07,15,10,21,20.80
2014,07,15,10,22,20.80
2014,07,15,10,23,20.90
2014,07,15,10,24,20.90
2014,07,15,10,25,20.90
2014,07,15,10,26,20.90
2014,07,15,10,27,20.90
2014,07,15,10,28,20.90
2014,07,15,10,29,20.90
2014,07,15,10,30,20.90
2014,07,15,10,31,20.90
2014,07,15,10,32,20.90
2014,07,15,10,33,20.90
2014,07,15,10,34,20.90
2014,07,15,10,35,20.90
2014,07,15,10,36,21.00
2014,07,15,10,37,21.00
2014,07,15,10,38,21.00
2014,07,15,10,39,21.10
2014,07,15,10,40,21.10
2014,07,15,10,41,21.10
2014,07,15,10,42,21.10
2014,07,15,10,43,21.10
2014,07,15,10,44,21.10
2014,07,15,10,45,21.20
2014,07,15,10,46,21.20
2014,07,15,10,47,21.20
2014,07,15,10,48,21.20
2014,07,15,10,49,21.20
2014,07,15,10,50,21.20
2014,07,15,10,51,21.20
2014,07,15,10,52,21.30
2014,07,15,10,53,21.30
2014,07,15,10,54,21.40
2014,07,15,10,55,21.40
2014,07,15,10,56,21.40
2014,07,15,10,57,21.40
2014,07,15,10,58,21.50
2014,07,15,10,59,21.60
2014,07,15,11,00,21.60
2014,07,15,11,01,21.50
2014,07,15,11,02,21.50
2014,07,15,11,03,21.40
2014,07,15,11,04,21.40
2014,07,15,11,05,21.40
2014,07,15,11,06,21.50
2014,07,15,11,07,21.50
2014,07,15,11,08,21.50
2014,07,15,11,09,21.50
2014,07,15,11,10,21.50
2014,07,15,11,11,21.60
2014,07,15,11,12,21.60
2014,07,15,11,13,21.70
2014,07,15,11,14,21.70
2014,07,15,11,15,21.70
2014,07,15,11,16,21.70
2014,07,15,11,17,21.80
2014,07,15,11,18,21.80
2014,07,15,11,19,21.90
2014,07,15,11,20,21.90
2014,07,15,11,21,21.90
2014,07,15,11,22,21.80
2014,07,15,11,23,21.80
2014,07,15,11,24,21.80
2014,07,15,11,25,21.80
2014,07,15,11,26,21.80
2014,07,15,11,27,21.70
2014,07,15,11,28,21.70
2014,07,15,11,29,21.70
2014,07,15,11,30,21.70
2014,07,15,11,31,21.80
2014,07,15,11,32,21.70
2014,07,15,11,33,21.70
2014,07,15,11,34,21.80
2014,07,15,11,35,22.00
2014,07,15,11,36,22.10
2014,07,15,11,37,22.20
2014,07,15,11,38,22.20
2014,07,15,11,39,22.10
2014,07,15,11,40,22.10
2014,07,15,11,41,22.00
2014,07,15,11,42,22.10
2014,07,15,11,43,22.10
2014,07,15,11,44,22.20
2014,07,15,11,45,22.20
2014,07,15,11,46,22.30
2014,07,15,11,47,22.30
2014,07,15,11,48,22.30
2014,07,15,11,49,22.40
2014,07,15,11,50,22.40
2014,07,15,11,51,22.50
2014,07,15,11,52,22.40
2014,07,15,11,53,22.40
2014,07,15,11,54,22.50
2014,07,15,11,55,22.50
2014,07,15,11,56,22.50
2014,07,15,11,57,22.50
2014,07,15,11,58,22.40
2014,07,15,11,59,22.30
2014,07,15,12,00,22.30
2014,07,15,12,01,22.30
2014,07,15,12,02,22.30
2014,07,15,12,03,22.40
2014,07,15,12,04,22.40
2014,07,15,12,05,22.40
2014,07,15,12,06,22.40
2014,07,15,12,07,22.50
2014,07,15,12,08,22.50
2014,07,15,12,09,22.60
2014,07,15,12,10,22.60
2014,07,15,12,11,22.60
2014,07,15,12,12,22.60
2014,07,15,12,13,22.70
2014,07,15,12,14,22.80
2014,07,15,12,15,22.90
2014,07,15,12,16,23.00
2014,07,15,12,17,23.00
2014,07,15,12,18,23.10
2014,07,15,12,19,23.10
2014,07,15,12,20,23.10
2014,07,15,12,21,23.20
2014,07,15,12,22,23.20
2014,07,15,12,23,23.30
2014,07,15,12,24,23.30
2014,07,15,12,25,23.30
2014,07,15,12,26,23.40
2014,07,15,12,27,23.40
2014,07,15,12,28,23.50
2014,07,15,12,29,23.70
2014,07,15,12,30,23.70
2014,07,15,12,31,23.70
2014,07,15,12,32,23.60
2014,07,15,12,33,23.50
2014,07,15,12,34,23.50
2014,07,15,12,35,23.50
2014,07,15,12,36,23.60
2014,07,15,12,37,23.70
2014,07,15,12,38,23.70
2014,07,15,12,39,23.80
2014,07,15,12,40,24.00
2014,07,15,12,41,24.20
2014,07,15,12,42,24.30
2014,07,15,12,43,24.30
2014,07,15,12,44,24.30
2014,07,15,12,45,24.40
2014,07,15,12,46,24.40
2014,07,15,12,47,24.60
2014,07,15,12,48,24.70
2014,07,15,12,49,24.90
2014,07,15,12,50,24.90
2014,07,15,12,51,25.00
2014,07,15,12,52,25.10
2014,07,15,12,53,25.00
2014,07,15,12,54,25.10
2014,07,15,12,55,25.20
2014,07,15,12,56,25.30
2014,07,15,12,57,25.30
2014,07,15,12,58,25.30
2014,07,15,12,59,25.10
2014,07,15,13,00,25.00
2014,07,15,13,01,24.80
2014,07,15,13,02,24.70
2014,07,15,13,03,24.60
2014,07,15,13,04,24.60
2014,07,15,13,05,24.60
2014,07,15,13,06,24.60
2014,07,15,13,07,24.70
2014,07,15,13,08,24.80
2014,07,15,13,09,24.80
2014,07,15,13,10,24.80
2014,07,15,13,11,24.80
2014,07,15,13,12,24.80
2014,07,15,13,13,24.80
2014,07,15,13,14,24.90
2014,07,15,13,15,24.90
2014,07,15,13,16,24.90
2014,07,15,13,17,25.00
2014,07,15,13,18,25.00
2014,07,15,13,19,25.00
2014,07,15,13,20,25.00
2014,07,15,13,21,25.10
2014,07,15,13,22,25.10
2014,07,15,13,23,25.10
2014,07,15,13,24,25.20
2014,07,15,13,25,25.20
2014,07,15,13,26,25.20
2014,07,15,13,27,25.30
2014,07,15,13,28,25.30
2014,07,15,13,29,25.30
2014,07,15,13,30,25.30
2014,07,15,13,31,25.30
2014,07,15,13,32,25.20
2014,07,15,13,33,25.20
2014,07,15,13,34,25.20
2014,07,15,13,35,25.20
2014,07,15,13,36,25.30
2014,07,15,13,37,25.30
2014,07,15,13,38,25.30
2014,07,15,13,39,25.30
2014,07,15,13,40,25.40
2014,07,15,13,41,25.50
2014,07,15,13,42,25.50
2014,07,15,13,43,25.50
2014,07,15,13,44,25.50
2014,07,15,13,45,25.50
2014,07,15,13,46,25.50
2014,07,15,13,47,25.50
2014,07,15,13,48,25.60
2014,07,15,13,49,25.60
2014,07,15,13,50,25.60
2014,07,15,13,51,25.60
2014,07,15,13,52,25.60
2014,07,15,13,53,25.60
2014,07,15,13,54,25.60
2014,07,15,13,55,25.60
2014,07,15,13,56,25.60
2014,07,15,13,57,25.70
2014,07,15,13,58,25.80
2014,07,15,13,59,25.80
2014,07,15,14,00,25.80
2014,07,15,14,01,25.80
2014,07,15,14,02,25.80
2014,07,15,14,03,25.80
2014,07,15,14,04,25.70
2014,07,15,14,05,25.70
2014,07,15,14,06,25.70
2014,07,15,14,07,25.70
2014,07,15,14,08,25.70
2014,07,15,14,09,25.60
2014,07,15,14,10,25.60
2014,07,15,14,11,25.50
2014,07,15,14,12,25.50
2014,07,15,14,13,25.60
2014,07,15,14,14,25.60
2014,07,15,14,15,25.60
2014,07,15,14,16,25.60
2014,07,15,14,17,25.70
2014,07,15,14,18,25.60
2014,07,15,14,19,25.60
2014,07,15,14,20,25.50
2014,07,15,14,21,25.60
2014,07,15,14,22,25.70
2014,07,15,14,23,25.70
2014,07,15,14,24,25.80
2014,07,15,14,25,25.70
2014,07,15,14,26,25.70
2014,07,15,14,27,25.70
2014,07,15,14,28,25.70
2014,07,15,14,29,25.70
2014,07,15,14,30,25.80
2014,07,15,14,31,25.80
2014,07,15,14,32,25.90
2014,07,15,14,33,25.90
2014,07,15,14,34,25.90
2014,07,15,14,35,26.00
2014,07,15,14,36,26.10
2014,07,15,14,37,26.20
2014,07,15,14,38,26.20
2014,07,15,14,39,26.30
2014,07,15,14,40,26.30
2014,07,15,14,41,26.30
2014,07,15,14,42,26.30
2014,07,15,14,43,26.30
2014,07,15,14,44,26.30
2014,07,15,14,45,26.30
2014,07,15,14,46,26.20
2014,07,15,14,47,26.30
2014,07,15,14,48,26.40
2014,07,15,14,49,26.40
2014,07,15,14,50,26.40
2014,07,15,14,51,26.50
2014,07,15,14,52,26.60
2014,07,15,14,53,26.70
2014,07,15,14,54,26.80
2014,07,15,14,55,26.90
2014,07,15,14,56,26.90
2014,07,15,14,57,26.90
2014,07,15,14,58,26.90
2014,07,15,14,59,26.90
2014,07,15,15,00,26.90
2014,07,15,15,01,26.90
2014,07,15,15,02,26.90
2014,07,15,15,03,27.00
2014,07,15,15,04,27.00
2014,07,15,15,05,27.00
2014,07,15,15,06,27.00
2014,07,15,15,07,27.00
2014,07,15,15,08,27.10
2014,07,15,15,09,27.10
2014,07,15,15,10,27.20
2014,07,15,15,11,27.20
2014,07,15,15,12,27.30
2014,07,15,15,13,27.30
2014,07,15,15,14,27.30
2014,07,15,15,15,27.30
2014,07,15,15,16,27.20
2014,07,15,15,17,27.20
2014,07,15,15,18,27.20
2014,07,15,15,19,27.30
2014,07,15,15,20,27.40
2014,07,15,15,21,27.30
2014,07,15,15,22,27.30
2014,07,15,15,23,27.20
2014,07,15,15,24,27.30
2014,07,15,15,25,27.30
2014,07,15,15,26,27.30
2014,07,15,15,27,27.30
2014,07,15,15,28,27.20
2014,07,15,15,29,27.20
2014,07,15,15,30,27.10
2014,07,15,15,31,27.00
2014,07,15,15,32,26.80
2014,07,15,15,33,26.80
2014,07,15,15,34,26.70
2014,07,15,15,35,26.70
2014,07,15,15,36,26.80
2014,07,15,15,37,26.80
2014,07,15,15,38,26.90
2014,07,15,15,39,27.00
2014,07,15,15,40,27.10
2014,07,15,15,41,27.10
2014,07,15,15,42,27.20
2014,07,15,15,43,27.20
2014,07,15,15,44,27.10
2014,07,15,15,45,27.10
2014,07,15,15,46,27.20
2014,07,15,15,47,27.30
2014,07,15,15,48,27.30
2014,07,15,15,49,27.40
2014,07,15,15,50,27.50
2014,07,15,15,51,27.70
2014,07,15,15,52,27.70
2014,07,15,15,53,27.70
2014,07,15,15,54,27.70
2014,07,15,15,55,27.70
2014,07,15,15,56,27.70
2014,07,15,15,57,27.70
2014,07,15,15,58,27.70
2014,07,15,15,59,27.80
2014,07,15,16,00,27.80
2014,07,15,16,01,27.80
2014,07,15,16,02,27.90
2014,07,15,16,03,28.00
2014,07,15,16,04,28.10
2014,07,15,16,05,28.10
2014,07,15,16,06,28.10
2014,07,15,16,07,28.00
2014,07,15,16,08,27.90
2014,07,15,16,09,27.90
2014,07,15,16,10,27.80
2014,07,15,16,11,27.70
2014,07,15,16,12,27.60
2014,07,15,16,13,27.60
2014,07,15,16,14,27.60
2014,07,15,16,15,27.50
2014,07,15,16,16,27.40
2014,07,15,16,17,27.40
2014,07,15,16,18,27.30
2014,07,15,16,19,27.20
2014,07,15,16,20,27.20
2014,07,15,16,21,27.20
2014,07,15,16,22,27.10
2014,07,15,16,23,27.10
2014,07,15,16,24,27.20
2014,07,15,16,25,27.30
2014,07,15,16,26,27.30
2014,07,15,16,27,27.30
2014,07,15,16,28,27.40
2014,07,15,16,29,27.50
2014,07,15,16,30,27.50
2014,07,15,16,31,27.60
2014,07,15,16,32,27.50
2014,07,15,16,33,27.40
2014,07,15,16,34,27.30
2014,07,15,16,35,27.30
2014,07,15,16,36,27.30
2014,07,15,16,37,27.30
2014,07,15,16,38,27.30
2014,07,15,16,39,27.30
2014,07,15,16,40,27.30
2014,07,15,16,41,27.30
2014,07,15,16,42,27.20
2014,07,15,16,43,27.20
2014,07,15,16,44,27.30
2014,07,15,16,45,27.40
2014,07,15,16,46,27.40
2014,07,15,16,47,27.40
2014,07,15,16,48,27.40
2014,07,15,16,49,27.40
2014,07,15,16,50,27.30
2014,07,15,16,51,27.30
2014,07,15,16,52,27.20
2014,07,15,16,53,27.30
2014,07,15,16,54,27.30
2014,07,15,16,55,27.50
2014,07,15,16,56,27.50
2014,07,15,16,57,27.60
2014,07,15,16,58,27.60
2014,07,15,16,59,27.70
2014,07,15,17,00,27.80
2014,07,15,17,01,28.00
2014,07,15,17,02,28.10
2014,07,15,17,03,28.20
2014,07,15,17,04,28.20
2014,07,15,17,05,28.20
2014,07,15,17,06,28.20
2014,07,15,17,07,28.20
2014,07,15,17,08,28.20
2014,07,15,17,09,28.20
2014,07,15,17,10,28.20
2014,07,15,17,11,28.20
2014,07,15,17,12,28.20
2014,07,15,17,13,28.10
2014,07,15,17,14,28.10
2014,07,15,17,15,28.00
2014,07,15,17,16,28.10
2014,07,15,17,17,28.10
2014,07,15,17,18,28.10
2014,07,15,17,19,28.10